TimeEDT,TemperatureF,Dew PointF,Humidity,Sea Level PressureIn,VisibilityMPH,Wind Direction,Wind SpeedMPH,Gust SpeedMPH,PrecipitationIn,Events,Conditions,WindDirDegrees,DateUTC
12:53 AM,57.9,48.0,70,29.94,10.0,Calm,Calm,-,N/A,,Partly Cloudy,0,2013-03-22 04:53:00
1:53 AM,55.9,48.9,77,29.93,10.0,Calm,Calm,-,N/A,,Partly Cloudy,0,2013-03-22 05:53:00
2:53 AM,55.0,48.9,80,29.92,10.0,Calm,Calm,-,N/A,,Partly Cloudy,0,2013-03-22 06:53:00
3:53 AM,54.0,48.9,83,29.91,10.0,Calm,Calm,-,N/A,,Clear,0,2013-03-22 07:53:00
4:53 AM,55.0,48.9,80,29.91,10.0,Calm,Calm,-,N/A,,Clear,0,2013-03-22 08:53:00
5:53 AM,55.0,50.0,83,29.92,10.0,Calm,Calm,-,N/A,,Clear,0,2013-03-22 09:53:00
6:53 AM,55.0,50.0,83,29.94,10.0,Calm,Calm,-,N/A,,Partly Cloudy,0,2013-03-22 10:53:00
7:53 AM,57.9,53.1,84,29.97,10.0,Calm,Calm,-,N/A,,Mostly Cloudy,0,2013-03-22 11:53:00
8:53 AM,66.0,54.0,65,29.98,10.0,Calm,Calm,-,N/A,,Scattered Clouds,0,2013-03-22 12:53:00
9:53 AM,73.0,55.0,53,29.99,10.0,ESE,10.4,-,N/A,,Mostly Cloudy,120,2013-03-22 13:53:00
10:53 AM,73.0,55.0,53,30.01,10.0,SE,11.5,18.4,N/A,,Mostly Cloudy,140,2013-03-22 14:53:00
11:53 AM,75.0,55.9,51,30.01,10.0,ESE,13.8,19.6,N/A,,Mostly Cloudy,120,2013-03-22 15:53:00
12:53 PM,75.0,55.9,51,30.01,10.0,ESE,15.0,21.9,N/A,,Mostly Cloudy,120,2013-03-22 16:53:00
1:53 PM,73.0,55.0,53,29.98,10.0,SE,13.8,-,N/A,,Overcast,140,2013-03-22 17:53:00
2:53 PM,73.9,55.9,53,29.96,10.0,SE,15.0,-,N/A,,Mostly Cloudy,130,2013-03-22 18:53:00
3:53 PM,73.0,55.0,53,29.94,10.0,SE,13.8,-,N/A,,Mostly Cloudy,130,2013-03-22 19:53:00
4:53 PM,75.0,57.0,53,29.92,10.0,SE,17.3,-,N/A,,Mostly Cloudy,130,2013-03-22 20:53:00
5:53 PM,73.0,57.9,59,29.93,10.0,SE,12.7,-,N/A,,Mostly Cloudy,140,2013-03-22 21:53:00
6:32 PM,73.4,60.8,65,29.93,10.0,SE,11.5,19.6,N/A,,Mostly Cloudy,140,2013-03-22 22:32:00
6:53 PM,73.0,61.0,66,29.94,10.0,SE,11.5,-,N/A,,Mostly Cloudy,140,2013-03-22 22:53:00
7:53 PM,73.0,64.0,73,29.94,10.0,SSE,11.5,-,N/A,,Mostly Cloudy,150,2013-03-22 23:53:00
8:23 PM,73.4,64.4,73,29.94,10.0,SSE,13.8,-,N/A,,Mostly Cloudy,150,2013-03-23 00:23:00
8:53 PM,73.9,66.0,76,29.96,10.0,SSE,12.7,-,N/A,,Overcast,150,2013-03-23 00:53:00
8:59 PM,73.4,66.2,78,29.96,10.0,SSE,12.7,-,N/A,,Overcast,150,2013-03-23 00:59:00
9:53 PM,73.9,66.9,79,29.97,10.0,SSE,10.4,-,N/A,,Overcast,150,2013-03-23 01:53:00
10:53 PM,73.0,69.1,87,29.98,10.0,SE,10.4,-,0.02,,Overcast,140,2013-03-23 02:53:00
11:53 PM,73.0,69.1,87,29.99,10.0,South,5.8,-,N/A,,Mostly Cloudy,170,2013-03-23 03:53:00